Regional Weather Roundup
Issued by NWS

Home | Current Version | Previous Version | Text Only | Print | Product List | Glossary Off
Versions: 1 2 3 4 5 6 7 8 9 10 11 12 13 14 15 16 17 18 19 20 21 22 23 24 25 26 27 28 29 30 31 32 33 34 35 36 37 38 39 40 41 42 43 44 45 46 47 48 49 50

324
ASUS43 KDMX 280106
RWRIA

WEATHER ROUNDUP FOR IOWA
NATIONAL WEATHER SERVICE DES MOINES IA
800 PM CDT THU APR 27 2017

NOTE: "FAIR" INDICATES FEW OR NO CLOUDS BELOW 12,000 FEET WITH NO
SIGNIFICANT WEATHER AND/OR OBSTRUCTIONS TO VISIBILITY.

* - THESE STATIONS ARE NOT NWS STATIONS...THUS NOT UNDER NWS
QUALITY CONTROL.  THEY ALSO DO NOT REPORT WEATHER SUCH
AS PRECIPITATION OR FOG.

IAZ001>003-012>014-020>022-031>034-043>046-280200-
   NORTHWEST IOWA

CITY           SKY/WX    TMP DP  RH WIND       PRES   REMARKS
CARROLL *      CLEAR     50  34  53 NW7       29.74R
CHEROKEE *     CLEAR     45  36  71 E3        29.74R
DENISON *      CLEAR     50  36  57 N5        29.75R
LE MARS *      CLEAR     50  34  53 CALM      29.74R
ORANGE CITY *  CLEAR     46  36  66 NW3       29.73R
SHELDON *      CLEAR     45  34  65 NE7       29.72R
SIOUX CITY     CLEAR     51  36  56 N5        29.74R
SPENCER        CLEAR     42  32  67 N5        29.74R
STORM LAKE *   CLEAR     43  34  70 N6        29.74R
$$

IAZ055>058-069>071-079>083-090>094-280200-
   SOUTHWEST IOWA

CITY           SKY/WX    TMP DP  RH WIND       PRES   REMARKS
ATLANTIC *     PTCLDY    52  36  54 W3        29.74R
AUDUBON *      CLEAR     52  36  54 CALM      29.74S
CLARINDA *     CLOUDY    55  34  44 CALM      29.76R
COUNCIL BLFS * MOCLDY    54  36  50 CALM      29.73R
CRESTON *      PTCLDY    50  34  53 NW6       29.75R
HARLAN  *      PTCLDY    52  34  50 SW6       29.77R
LAMONI         MOCLDY    54  40  59 SW6       29.74R
RED OAK *      CLOUDY    54  36  50 N5        29.74R
SHENANDOAH *   PTCLDY    57  34  41 CALM      29.74R
$$

IAZ047>049-059>061-072>074-084-280200-
   CENTRAL IOWA

CITY           SKY/WX    TMP DP  RH WIND       PRES   REMARKS
AMES           PTCLDY    46  34  62 NW6       29.76R
ANKENY *       CLEAR     46  34  61 N9        29.77R
BOONE *        CLEAR     45  34  65 NW7       29.75R
CHARITON *     PTCLDY    54  39  58 NW3       29.74R
DES MOINES     PTCLDY    52  35  52 N7        29.75R
GRINNELL*      PTCLDY    44  34  68 N5        29.77R
KNOXVILLE *    CLEAR     52  36  54 NW8       29.74R
MARSHALLTOWN   CLOUDY    41  32  70 NW8       29.76R
NEWTON *       CLEAR     45  34  65 N8        29.76R
PELLA *        CLEAR     49  37  63 N3        29.77R
PERRY *          N/A     48  32  54 N6        29.75R
$$

IAZ004>006-015-016-023>025-035-036-280200-
   NORTH CENTRAL IOWA

CITY           SKY/WX    TMP DP  RH WIND       PRES   REMARKS
ALGONA *       CLOUDY    41  32  70 NW6       29.75R
CLARION *      CLOUDY    41  32  70 W14       29.76R
ESTHERVILLE    CLOUDY    38  32  79 N8        29.74R WCI  32
FORT DODGE *   CLEAR     41  28  60 NW3       29.77R
MASON CITY     CLOUDY    37  29  72 NW13      29.76R WCI  29
FOREST CITY *  CLOUDY    37  27  65 NW8       29.75R WCI  31
WEBSTER CITY * CLEAR     41  32  70 NW10      29.75R
IOWA FALLS *     N/A     42  32  67 W12       29.77R HAZE
$$

IAZ007>011-017>019-026>030-037>042-050>054-066-280200-
   NORTHEAST IOWA

CITY           SKY/WX    TMP DP  RH WIND       PRES   REMARKS
CEDAR RAPIDS   CLEAR     41  35  79 NW8       29.76R
CHARLES CITY * CLOUDY    37  30  75 W10G17    29.75R WCI  30
CLINTON *      CLOUDY    42  37  82 NW7       29.77R
DECORAH *      CLOUDY    37  30  75 VRB7G16   29.72R WCI  32
DUBUQUE        CLOUDY    39  32  76 W10       29.75R WCI  32
MONTICELLO *   CLOUDY    41  32  70 W9        29.76R
WATERLOO       CLOUDY    41  29  62 W7        29.75R
$$

IAZ064-065-067-068-078-280200-
   EAST CENTRAL IOWA

CITY           SKY/WX    TMP DP  RH WIND       PRES   REMARKS
DAVENPORT      PTCLDY    44  37  76 W7        29.77R
IOWA CITY      CLEAR     46  35  65 NW6       29.78R
MT. PLEASANT * MOCLDY    51  43  73 CALM      29.77R
MUSCATINE *    CLEAR     48  39  71 CALM      29.78R
QUAD CITIES    PTCLDY    44  36  73 SW5       29.77R
$$

IAZ062-063-075>077-085>089-095>099-280200-
   SOUTHEAST IOWA

CITY           SKY/WX    TMP DP  RH WIND       PRES   REMARKS
BURLINGTON     CLOUDY    52  44  74 CALM      29.77R
FAIRFIELD *    MOCLDY    50  43  76 CALM      29.76R
FORT MADISON * CLOUDY    54  43  66 CALM      29.78R
KEOKUK *       MOCLDY    52  43  71 S5        29.77R
OSKALOOSA *    CLOUDY    51  39  63 NE3       29.76R
CENTERVILLE *    N/A     54  39  58 CALM      29.76R
OTTUMWA        CLOUDY    54  38  54 CALM      29.75R
WASHINGTON *   PTCLDY    48  39  71 CALM      29.78R
$$

ABBREVIATIONS USED IN REMARKS
   TC - TEMPERATURES IN CELSIUS
  WCI - WIND CHILL INDEX
   HX - HEAT INDEX
  VSB - VISIBILITY
$$





USA.gov is the U.S. government's official web portal to all federal, state and local government web resources and services.